Location: Unspecified
(0.0000°N, 0.0000°E)
Time: 23:57:38
(UTC+00:00)

Vanguard 3 - Visible Passes

Search period start: 28 May 2017 00:00
Search period end: 07 June 2017 00:00
Orbit: 508 x 3265 km, 33.3° (Epoch: 27 May)

Date Brightness Start Highest point End Pass type
(mag) Time Alt. Az. Time Alt. Az. Time Alt. Az.
28 May 9.8 18:38:18 10° SW 18:56:29 49° SSE 19:07:46 13° E visible
28 May 9.0 20:56:05 10° WSW 21:12:10 69° NW 21:12:29 69° NNW visible
29 May 9.2 19:38:20 10° SW 19:56:52 79° SE 20:04:27 28° ENE visible
29 May 10.0 21:58:35 10° W 22:09:11 33° WNW 22:09:11 33° WNW visible
30 May 9.8 18:21:19 10° SW 18:40:30 56° SSE 18:53:33 10° ENE visible
30 May 9.4 20:39:29 10° WSW 20:56:11 61° NW 21:01:17 36° NNE visible
30 May 10.8 23:04:27 10° WNW 23:06:02 12° WNW 23:06:02 12° WNW visible
31 May 9.5 19:21:29 10° SW 19:40:45 89° SE 19:52:38 10° NE visible
31 May 10.0 21:42:36 10° W 21:54:52 30° NW 21:58:14 26° NNW visible
01 Jun 9.9 18:04:28 10° SW 18:24:19 64° SE 18:38:21 10° ENE visible
01 Jun 9.8 20:22:59 10° WSW 20:40:04 54° NW 20:50:28 10° NE visible
01 Jun 10.7 22:49:40 10° WNW 22:53:50 12° NW 22:55:13 12° NNW visible
02 Jun 9.7 19:04:45 10° WSW 19:24:29 82° NW 19:37:15 10° NE visible
02 Jun 10.5 21:26:44 10° W 21:39:01 27° NW 21:47:16 10° NNE visible
03 Jun 10.0 17:47:44 10° SW 18:07:59 73° SE 18:22:59 10° ENE visible
03 Jun 10.2 20:06:36 10° WSW 20:23:54 48° NW 20:35:01 10° NNE visible
03 Jun 10.8 22:35:04 10° NW 22:38:26 11° NW 22:41:23 10° NNW visible
04 Jun 9.0 05:21:31 10° N 05:24:24 20° NE 05:27:52 10° E visible
04 Jun 10.0 18:48:10 10° WSW 19:08:05 73° NW 19:21:45 10° NE visible
04 Jun 10.7 21:10:59 10° W 21:23:11 25° NW 21:31:43 10° NNE visible
05 Jun 10.5 19:50:22 10° WSW 20:07:42 43° NW 20:19:26 10° NNE visible
05 Jun 11.0 22:20:44 10° NW 22:23:05 11° NNW 22:25:16 10° NNW visible
06 Jun 8.4 05:06:00 10° NNW 05:09:12 28° NE 05:12:58 10° E visible
06 Jun 10.3 18:31:44 10° WSW 18:51:37 66° NW 19:06:06 10° NE visible
06 Jun 10.9 20:55:24 10° W 21:07:23 23° NW 21:16:08 10° NNE visible
